sat.trackr.live / text

‹ back to catalog

STARLINK-3157

NORAD 49413 · 2021-104F

PAYLOAD ACTIVE UNKNOWN

§ Identity

Operator
Country
US
Launch date
2021-11-13
Launch site
AFETR
Launch vehicle
Mass (kg)
RCS (m²)

Purposes: comms

External: N2YO · Heavens-Above · Gunter

§ Orbital elements

Epoch: 2026-09-19T20:33:20.347200Z

Period
93.90 min
Inclination
53.1600°
Eccentricity
0.0001115
Mean motion
15.33551027 rev/d
Perigee alt
464.5 km
Apogee alt
466.0 km
Semi-major
6,843.4 km
B*
2.6305e-5
RAAN
54.8675°
Arg perigee
85.8034°
Mean anomaly
274.3096°
Rev number
26,825

§ Raw data

STARLINK-31571 49413U 21104F   26262.85648550  .00000493  00000+0  26305-4 0  99932 49413  53.1600  54.8675 0001115  85.8034 274.3096 15.33551027268255

JSON: /api/v1/satellites/49413 · /tle

For live sub-satellite position, see the globe view (requires WebGL).

§ Visibility from observer

Set your observer location to see the next 7 days of passes ≥ 10°. The values pass through the URL so the page stays shareable.

No JS? Fill the form by hand. The geolocation button needs JavaScript.